Change the Weather History Date:

Wednesday, September 25, 2013

  Actual Average (KHDO) Record (KHDO)
Temperature  
Mean Temperature 82 °F -  
Max Temperature 96 °F 86 °F 105 °F (2011)
Min Temperature 68 °F 61 °F 50 °F (2001)
Cooling Degree Days 16    
Growing Degree Days 32 (Base 50)    
Moisture  
Dew Point 58 °F    
Average Humidity 47    
Maximum Humidity 79    
Minimum Humidity 25    
Precipitation  
Precipitation 0.00 in - - ()
Sea Level Pressure  
Sea Level Pressure 29.86 in    
Wind  
Wind Speed 5 mph (ESE)    
Max Wind Speed 14 mph    
Max Gust Speed 18 mph    
Visibility 10 miles    
Events      
Averages and records for this station are not official NWS values.
T = Trace of Precipitation, MM = Missing Value Source: NWS Daily Summary

Daily Weather History Graph

Daily Weather History Graph

Search for Another Location

Airport or City:

Trip Planner

Search our weather history database for the weather conditions in past years. The results will help you decide how hot, cold, wet, or windy it might be!

Date:

Astronomy

Sep. 25, 2013 Rise Set
Actual Time 7:29 AM CDT 7:31 PM CDT
Civil Twilight 7:05 AM CDT 7:55 PM CDT
Nautical Twilight 6:37 AM CDT 8:22 PM CDT
Astronomical Twilight 6:10 AM CDT 8:50 PM CDT
Moon No Moon Rise 1:12 PM CDT (9/25)
Length of Visible Light 12h 49m
Length of Day
12h 02m
Waning Gibbous, 64% of the Moon is Illuminated
Sep 25
Waning Gibbous
Sep 26
Last Quarter
Oct 4
New
Oct 11
First Quarter
Oct 18
Full

Hourly Weather History & Observations

Time (CDT) Temp. Heat Index Dew Point Humidity Pressure Visibility Wind Dir Wind Speed Gust Speed Precip Events Conditions
12:15 AM 75.0 °F - 57.4 °F 54% 29.91 in 10.0 mi ENE 5.8 mph - N/A   Clear
12:35 AM 72.9 °F - 56.3 °F 56% 29.90 in 10.0 mi East 3.5 mph - N/A   Clear
12:55 AM 72.9 °F - 56.8 °F 57% 29.91 in 10.0 mi Calm Calm - N/A   Scattered Clouds
1:15 AM 72.9 °F - 56.3 °F 56% 29.90 in 10.0 mi NE 3.5 mph - N/A   Scattered Clouds
1:35 AM 74.5 °F - 57.2 °F 55% 29.90 in 10.0 mi Calm Calm - N/A   Scattered Clouds
1:55 AM 72.9 °F - 57.7 °F 59% 29.90 in 10.0 mi East 3.5 mph - N/A   Scattered Clouds
2:35 AM 75.0 °F - 58.8 °F 57% 29.90 in 10.0 mi Calm Calm - N/A   Mostly Cloudy
2:55 AM 74.3 °F - 59.2 °F 59% 29.90 in 10.0 mi NE 5.8 mph - N/A   Scattered Clouds
3:15 AM 74.3 °F - 59.7 °F 60% 29.91 in 10.0 mi NE 5.8 mph - N/A   Mostly Cloudy
3:35 AM 72.9 °F - 60.3 °F 65% 29.90 in 10.0 mi NE 5.8 mph - N/A   Overcast
3:55 AM 72.9 °F - 60.1 °F 64% 29.90 in 10.0 mi NE 4.6 mph - N/A   Overcast
4:15 AM 72.9 °F - 60.4 °F 65% 29.90 in 10.0 mi NNE 4.6 mph - N/A   Overcast
4:35 AM 72.9 °F - 60.3 °F 65% 29.89 in 10.0 mi Calm Calm - N/A   Mostly Cloudy
4:55 AM 72.9 °F - 61.7 °F 68% 29.89 in 10.0 mi NE 5.8 mph - N/A   Mostly Cloudy
5:15 AM 70.9 °F - 60.8 °F 70% 29.90 in 10.0 mi NE 4.6 mph - N/A   Scattered Clouds
5:35 AM 70.3 °F - 60.4 °F 71% 29.89 in 10.0 mi NE 5.8 mph - N/A   Clear
5:55 AM 69.6 °F - 60.6 °F 73% 29.90 in 10.0 mi NE 4.6 mph - N/A   Clear
6:15 AM 68.5 °F - 60.1 °F 74% 29.90 in 10.0 mi NE 3.5 mph - N/A   Clear
6:35 AM 70.3 °F - 61.0 °F 72% 29.90 in 10.0 mi NE 5.8 mph - N/A   Clear
6:55 AM 68.0 °F - 60.1 °F 76% 29.90 in 10.0 mi Calm Calm - N/A   Clear
7:15 AM 69.1 °F - 60.4 °F 74% 29.90 in 10.0 mi Calm Calm - N/A   Clear
7:35 AM 68.0 °F - 61.2 °F 79% 29.90 in 10.0 mi NE 4.6 mph - N/A   Clear
7:55 AM 68.0 °F - 61.3 °F 79% 29.91 in 10.0 mi NE 3.5 mph - N/A   Clear
8:15 AM 70.2 °F - 62.2 °F 76% 29.91 in 10.0 mi NE 3.5 mph - N/A   Clear
8:35 AM 73.0 °F - 61.5 °F 67% 29.92 in 10.0 mi ENE 4.6 mph - N/A   Clear
8:55 AM 75.4 °F - 61.0 °F 61% 29.91 in 10.0 mi ENE 4.6 mph - N/A   Clear
9:15 AM 77.9 °F - 61.5 °F 57% 29.92 in 10.0 mi Calm Calm - N/A   Clear
9:35 AM 79.3 °F - 61.5 °F 54% 29.92 in 10.0 mi Calm Calm - N/A   Clear
9:55 AM 80.8 °F 81.8 °F 61.9 °F 52% 29.92 in 10.0 mi SSE 4.6 mph - N/A   Clear
10:15 AM 81.9 °F 82.6 °F 61.3 °F 50% 29.93 in 10.0 mi SSE 3.5 mph - N/A   Clear
10:35 AM 84.0 °F 84.7 °F 62.2 °F 48% 29.93 in 10.0 mi Calm Calm - N/A   Clear
10:55 AM 85.5 °F 85.9 °F 61.9 °F 45% 29.93 in 10.0 mi SSE 4.6 mph - N/A   Clear
11:15 AM 88.0 °F 88.4 °F 62.2 °F 42% 29.93 in 10.0 mi SSE 5.8 mph - N/A   Clear
11:35 AM 88.0 °F 87.9 °F 60.8 °F 40% 29.92 in 10.0 mi South 5.8 mph - N/A   Clear
11:55 AM 90.5 °F 89.8 °F 59.2 °F 35% 29.91 in 10.0 mi SE 6.9 mph - N/A   Clear
12:15 PM 92.5 °F 92.2 °F 60.4 °F 34% 29.91 in 10.0 mi South 9.2 mph - N/A   Clear
12:35 PM 93.2 °F 92.9 °F 60.4 °F 33% 29.90 in 10.0 mi SE 5.8 mph - N/A   Clear
1:15 PM 93.2 °F 91.6 °F 56.8 °F 29% 29.88 in 10.0 mi South 8.1 mph 17.3 mph N/A   Clear
1:35 PM 93.2 °F 91.9 °F 57.0 °F 30% 29.87 in 10.0 mi SSW 9.2 mph 18.4 mph N/A   Clear
1:55 PM 94.3 °F 93.0 °F 57.4 °F 29% 29.86 in 10.0 mi SE 6.9 mph - N/A   Scattered Clouds
2:15 PM 93.9 °F 92.6 °F 57.2 °F 29% 29.85 in 10.0 mi SE 6.9 mph 16.1 mph N/A   Mostly Cloudy
2:35 PM 93.2 °F 91.3 °F 55.9 °F 28% 29.84 in 10.0 mi SE 9.2 mph - N/A   Mostly Cloudy
2:55 PM 93.2 °F 91.3 °F 55.6 °F 28% 29.83 in 10.0 mi ESE 5.8 mph - N/A   Mostly Cloudy
3:15 PM 95.4 °F 93.5 °F 55.6 °F 26% 29.82 in 10.0 mi SSW 6.9 mph - N/A   Scattered Clouds
3:55 PM 95.2 °F 93.6 °F 56.1 °F 27% 29.81 in 10.0 mi SSW 9.2 mph - N/A   Scattered Clouds
4:15 PM 95.5 °F 93.7 °F 55.6 °F 26% 29.80 in 10.0 mi SSW 9.2 mph - N/A   Scattered Clouds
4:35 PM 95.5 °F 93.7 °F 55.2 °F 26% 29.79 in 10.0 mi SSW 8.1 mph - N/A   Scattered Clouds
4:55 PM 95.5 °F 93.7 °F 55.6 °F 26% 29.78 in 10.0 mi SSW 6.9 mph - N/A   Overcast
5:15 PM 95.5 °F 93.7 °F 55.4 °F 26% 29.78 in 10.0 mi SE 8.1 mph - N/A   Mostly Cloudy
5:35 PM 95.5 °F 93.4 °F 54.9 °F 25% 29.78 in 10.0 mi SSE 5.8 mph - N/A   Mostly Cloudy
5:55 PM 95.5 °F 93.4 °F 54.3 °F 25% 29.78 in 10.0 mi South 9.2 mph - N/A   Mostly Cloudy
6:15 PM 95.5 °F 93.4 °F 54.1 °F 25% 29.78 in 10.0 mi SSE 11.5 mph 16.1 mph N/A   Scattered Clouds
6:35 PM 94.8 °F 93.1 °F 55.8 °F 27% 29.78 in 10.0 mi SSE 5.8 mph - N/A   Scattered Clouds
6:55 PM 93.2 °F 91.0 °F 54.9 °F 27% 29.78 in 10.0 mi ESE 12.7 mph - N/A   Scattered Clouds
7:15 PM 93.2 °F 91.3 °F 55.6 °F 28% 29.78 in 10.0 mi ESE 11.5 mph - N/A   Scattered Clouds
7:35 PM 92.7 °F 90.9 °F 56.5 °F 29% 29.78 in 10.0 mi ESE 9.2 mph - N/A   Clear
7:55 PM 88.7 °F 86.7 °F 54.7 °F 31% 29.79 in 10.0 mi ESE 8.1 mph - N/A   Clear
8:15 PM 88.0 °F 86.3 °F 55.4 °F 33% 29.79 in 10.0 mi SE 8.1 mph - N/A   Scattered Clouds
8:35 PM 88.0 °F 86.5 °F 56.3 °F 34% 29.80 in 10.0 mi SE 6.9 mph - N/A   Scattered Clouds
8:55 PM 88.0 °F 86.7 °F 57.2 °F 35% 29.80 in 10.0 mi SE 10.4 mph - N/A   Clear
9:15 PM 88.0 °F 86.9 °F 57.6 °F 36% 29.81 in 10.0 mi SE 9.2 mph - N/A   Clear
9:35 PM 88.0 °F 86.9 °F 58.1 °F 36% 29.82 in 10.0 mi SE 13.8 mph 18.4 mph N/A   Clear
9:55 PM 87.4 °F 86.7 °F 58.6 °F 38% 29.82 in 10.0 mi SE 12.7 mph - N/A   Clear
10:15 PM 85.5 °F 84.6 °F 57.7 °F 39% 29.82 in 10.0 mi SE 11.5 mph - N/A   Clear
10:35 PM 82.8 °F 82.1 °F 56.5 °F 40% 29.83 in 10.0 mi SE 9.2 mph - N/A   Clear
10:55 PM 81.9 °F 81.4 °F 56.3 °F 41% 29.83 in 10.0 mi SE 6.9 mph - N/A   Clear
11:15 PM 81.1 °F 81.0 °F 56.3 °F 42% 29.84 in 10.0 mi SE 6.9 mph - N/A   Clear
11:35 PM 80.6 °F 80.6 °F 55.9 °F 43% 29.84 in 10.0 mi SE 5.8 mph - N/A   Clear
11:55 PM 80.1 °F 80.3 °F 56.1 °F 44% 29.84 in 10.0 mi SE 5.8 mph - N/A   Clear